{"data":{"norad_id":57613,"epoch":"2026-09-20T16:51:14.862240Z","epoch_age_seconds":110311,"freshness":"FRESH","line1":"1 57613U 23119M   26263.70225535 -.00000331  00000+0 -25028-5 0  9996","line2":"2 57613  43.0053  60.0195 0001714 268.1124  91.9531 15.27574774172914","mean_motion":15.27574774,"eccentricity":0.0001714,"inclination_deg":43.0053,"raan_deg":60.0195,"arg_perigee_deg":268.1124,"mean_anomaly_deg":91.9531,"bstar":-2.5028e-6,"rev_number":17291,"period_min":94.267071210486,"perigee_km":481.88873462928,"apogee_km":484.24075458733,"semimajor_km":6861.2017446083,"source":"CELESTRAK","updated_at":"2026-09-21T09:00:33.642209Z"}}